Location: Godzisko
(49.9648°N, 19.4576°E)
Time: 07:08:25
(UTC+00:00)

NOSS 3-3 (C) - Pass Details

Date: 20 April 2021
Orbit: 813 x 1399 km, 63.4° (Epoch: 02 May)

Event Time Altitude Azimuth Distance (km) Brightness Sun altitude
Exits shadow 00:58:36 43° 210° (SSW) 1,268 4.1 -21.5°
Maximum altitude 01:00:43 80° 130° (SE) 964 3.9 -21.3°
Drops below altitude 10° 01:07:25 10° 44° (NE) 2,878 7.6 -20.7°
Sets 01:10:15 0° 44° (NE) 3,929 8.8 -20.4°
